Regional Weather Roundup
Issued by NWS

Home | Current Version | Previous Version | Graphics & Text | Print | Product List | Glossary On
Versions: 1 2 3 4 5 6 7 8 9 10 11 12 13 14 15 16 17 18 19 20 21 22 23 24 25 26 27 28 29 30 31 32 33 34 35 36 37 38 39 40 41 42 43 44 45 46 47 48 49 50
296
ASUS45 KBOU 220310
RWRCO

WEATHER ROUNDUP FOR COLORADO
NATIONAL WEATHER SERVICE DENVER/BOULDER CO
900 PM MDT MON MAY 21 2018

NOTE: "FAIR" INDICATES FEW OR NO CLOUDS BELOW 12000 FEET WITH NO
SIGNIFICANT WEATHER AND/OR OBSTRUCTIONS TO VISIBILITY.

COZ001>005-013-030-031-220400-
...NORTHWEST COLORADO...

CITY           SKY/WX    TMP DP  RH WIND       PRES   REMARKS
CRAIG          FAIR      55  42  61 CALM      29.96R
HAYDEN         FAIR      62  37  39 SE3       30.00R
MEEKER         FAIR      63  39  41 CALM      29.96R
RANGELY        FAIR      64  33  30 CALM      29.87S
RABBIT EARS PA FAIR      50  21  32 N7        30.26R
STEAMBOAT SPGS FAIR      61  30  30 CALM      30.00S
WALDEN         FAIR      54  36  50 E12       30.11R
$$

COZ006>008-011-220400-
...WEST CENTRAL VALLEYS...

CITY           SKY/WX    TMP DP  RH WIND       PRES   REMARKS
GRAND JUNCTION FAIR      76  28  17 SW5       29.83R
MONTROSE       FAIR      67  31  26 SE15      29.98R
EAGLE          FAIR      65  31  28 E9        30.00R
RIFLE          FAIR      72  32  23 S16       29.91R
DELTA          FAIR      75  30  19 E10       29.92R
NUCLA          FAIR      70  21  16 S6G22     29.98R
$$

COZ017>023-064>068-220400-
...SOUTHWEST COLORADO...

CITY           SKY/WX    TMP DP  RH WIND       PRES   REMARKS
DURANGO        FAIR      55  40  56 E10       30.10R
CORTEZ         MOCLDY    64  37  36 SE5       30.02R
PAGOSA SPRINGS FAIR      51  38  59 CALM      30.18F
TELLURIDE      FAIR      51  32  47 S3        30.21S
WOLF CREEK PAS FAIR      32  32 100 NE5       30.42F WCI  27
$$

COZ009-010-012-014-032>034-037-058>063-220400-
...CENTRAL COLORADO...

CITY           SKY/WX    TMP DP  RH WIND       PRES   REMARKS
ASPEN          FAIR      59  32  36 SE13      30.08S
BUENA VISTA    FAIR      51  37  57 SE14      30.17S
COPPER MTN     FAIR      45  30  57 S10       30.38R
BERTHOUD PASS  FAIR      34  25  69 S16       30.39S WCI  23
COTTONWOOD PAS CLOUDY    52  37  58 CALM      30.27S
GUNNISON       FAIR      55  35  47 E10       30.15R
GRANBY         FAIR      57  32  38 CALM      30.13R
KREMMLING      FAIR      64  30  27 S12       30.07R
LEADVILLE      FAIR      45  33  63 S8        30.25R
MONARCH PASS   FAIR      36  30  80 MISG      30.47S
SALIDA         MOCLDY    54  39  58 W10G18    30.23S
SUNLIGHT       FAIR      46  18  31 CALM      30.30R
WILKERSON PASS FAIR      41  32  70 W5        30.37S
$$

COZ069>075-220400-
...SAN LUIS VALLEY/SANGRE DE CRISTO MOUNTAINS...

CITY           SKY/WX    TMP DP  RH WIND       PRES   REMARKS
ALAMOSA        FAIR      45  43  93 SE9       30.22F
DEL NORTE      FAIR      45  43  93 N3        30.24S
LA VETA PASS   FAIR      34  32  93 MISG      30.38F
SAGUACHE       NOT AVBL
$$

COZ035-036-038>040-220400-
...NORTHERN COLORADO FRONT RANGE...

CITY           SKY/WX    TMP DP  RH WIND       PRES   REMARKS
DENVER INTL AP MOCLDY    64  39  39 S15       29.97F
AURORA         MOCLDY    58  41  52 S7        29.99F
FRONT RANGE AP FAIR      65  40  40 S9G21     29.99F
ERIE MUNI ARPT FAIR      64  41  44 S3        30.01S
BOULDER MUN AP FAIR      66  45  45 NW3       29.97S
CENTENNIAL     MOCLDY    61  39  44 S8        30.01S
BROOMFIELD     MOCLDY    63  41  45 W7        30.00
FORT COLLINS   MOCLDY    67  48  50 NE7       29.97S
LONGMONT       FAIR      65  47  52 N7        29.98R
$$

COZ041-046-047-076>085-087-088-220400-
...PIKES PEAK/PALMER DIVIDE AND SOUTHERN FOOTHILLS...

CITY           SKY/WX    TMP DP  RH WIND       PRES   REMARKS
COLO. SPRINGS  MOCLDY    62  36  37 E7        30.04F
A. F. ACADEMY  FAIR      55  41  60 N7        30.06F
SCHRIEVER AFB  NOT AVBL
CHEYENNE MTN   FAIR      63  32  31 W9        30.02F
ELLICOTT         N/A    N/A N/A N/A S15       30.04F
FALCON         FAIR      55  36  48 NE5       30.09F
FORT CARSON    FAIR      65  35  33 W7        30.00F
LIMON          FAIR      60  39  45 S10       30.01F
MONUMENT HILL  FAIR      48  37  66 S10       30.11S
CANON CITY     FAIR      64  41  42 W5        30.00F
WALSENBURG     FAIR      57  41  54 SW13      30.09F
TRINIDAD       CLOUDY    56  47  71 S9        30.12S
$$

COZ042>045-048>051-090-091-220400-
...NORTHEAST COLORADO...

CITY           SKY/WX    TMP DP  RH WIND       PRES   REMARKS
GREELEY ARPT   FAIR      65  46  50 E5        29.97F
AKRON          FAIR      65  54  67 NE9       29.96S
BURLINGTON     FAIR      68  43  40 SW13      29.95R
WRAY           MOCLDY    68  57  68 E6        29.90F
YUMA           FAIR      64  37  36 SE8       29.93S
STERLING       FAIR      68  55  64 NE8       29.94R
HOLYOKE        FAIR      64  57  77 E10       29.93S
FORT MORGAN    FAIR      69  47  46 N9        29.96S
$$

COZ086-089-092>099-220400-
...SOUTHEAST COLORADO...

CITY           SKY/WX    TMP DP  RH WIND       PRES   REMARKS
PUEBLO         FAIR      69  40  34 S10       29.97F
LA JUNTA       FAIR      71  38  29 SW10      29.97S
LAMAR          FAIR      65  48  54 CALM      29.94R
SPRINGFIELD      N/A     69  50  50 S13       30.00S
$$




USA.gov is the U.S. government's official web portal to all federal, state and local government web resources and services.